| time (UTC) | temp C | wind direction | speed KPH | gust KPH | rain 1hr cm | rain 24hr cm | rain mn cm | humidity % | barometer mb |
| 20260507122532 | 20 | 263 | 6.4 | 0.0 | 0.00 | 0.00 | 0.00 | 72 | 1019.3 |
| 20260507122054 | 20 | 265 | 4.8 | 0.0 | 0.00 | 0.00 | 0.00 | 74 | 1019.4 |
| 20260507121951 | 20 | 261 | 4.8 | 4.8 | 0.00 | 0.00 | 0.00 | 73 | 1019.0 |
| 20260507121523 | 20 | 246 | 4.8 | 0.0 | 0.00 | 0.00 | 0.00 | 75 | 1019.4 |
| 20260507121028 | 20 | 246 | 4.8 | 0.0 | 0.00 | 0.00 | 0.00 | 74 | 1019.4 |
| 20260507120950 | 20 | 244 | 4.8 | 11.3 | 0.00 | 0.00 | 0.00 | 74 | 1019.1 |
| 20260507120520 | 20 | 245 | 4.8 | 0.0 | 0.00 | 0.00 | 0.00 | 73 | 1019.4 |
| 20260507120012 | 20 | 236 | 4.8 | 0.0 | 0.00 | 0.00 | 0.00 | 74 | 1019.4 |
| 20260507115951 | 20 | 234 | 4.8 | 8.0 | 0.00 | 0.00 | 0.00 | 74 | 1019.1 |
| 20260507115516 | 20 | 244 | 4.8 | 0.0 | 0.00 | 0.00 | 0.00 | 74 | 1019.3 |
| 20260507115039 | 20 | 257 | 4.8 | 0.0 | 0.00 | 0.00 | 0.00 | 74 | 1019.3 |
| 20260507114951 | 20 | 266 | 3.2 | 4.8 | 0.00 | 0.00 | 0.00 | 74 | 1019.0 |
| 20260507114525 | 20 | 278 | 4.8 | 0.0 | 0.00 | 0.00 | 0.00 | 74 | 1019.4 |
| 20260507114013 | 20 | 267 | 4.8 | 0.0 | 0.00 | 0.00 | 0.00 | 74 | 1019.4 |
| 20260507113524 | 20 | 249 | 4.8 | 0.0 | 0.00 | 0.00 | 0.00 | 75 | 1019.3 |
| 20260507113142 | 20 | 251 | 4.8 | 0.0 | 0.00 | 0.00 | 0.00 | 75 | 1019.3 |
| 20260507113014 | 20 | 255 | 4.8 | 0.0 | 0.00 | 0.00 | 0.00 | 75 | 1019.2 |
| 20260507112952 | 20 | 256 | 3.2 | 4.8 | 0.00 | 0.00 | 0.00 | 75 | 1019.0 |
| 20260507112512 | 20 | 258 | 4.8 | 0.0 | 0.00 | 0.00 | 0.00 | 73 | 1019.2 |
| 20260507112027 | 20 | 259 | 4.8 | 0.0 | 0.00 | 0.00 | 0.00 | 73 | 1019.4 |
| 20260507111951 | 20 | 259 | 3.2 | 11.3 | 0.00 | 0.00 | 0.00 | 73 | 1018.9 |
| 20260507111647 | 20 | 259 | 6.4 | 0.0 | 0.00 | 0.00 | 0.00 | 71 | 1019.3 |
| 20260507111523 | 20 | 264 | 6.4 | 0.0 | 0.00 | 0.00 | 0.00 | 70 | 1019.3 |
| 20260507111017 | 21 | 257 | 4.8 | 0.0 | 0.00 | 0.00 | 0.00 | 66 | 1019.3 |
| 20260507110513 | 21 | 267 | 4.8 | 0.0 | 0.00 | 0.00 | 0.00 | 65 | 1019.3 |
| 20260507110027 | 21 | 259 | 4.8 | 0.0 | 0.00 | 0.00 | 0.00 | 65 | 1019.2 |
| 20260507105951 | 21 | 259 | 4.8 | 11.3 | 0.00 | 0.03 | 0.00 | 64 | 1018.8 |
| 20260507105518 | 21 | 252 | 6.4 | 0.0 | 0.00 | 0.00 | 0.00 | 64 | 1019.1 |
| 20260507105030 | 21 | 246 | 6.4 | 0.0 | 0.00 | 0.00 | 0.00 | 64 | 1019.2 |
| 20260507104951 | 21 | 264 | 4.8 | 11.3 | 0.00 | 0.03 | 0.00 | 64 | 1018.9 |
| 20260507104559 | 20 | 272 | 6.4 | 0.0 | 0.00 | 0.00 | 0.00 | 65 | 1019.1 |
| 20260507104538 | 21 | 271 | 6.4 | 0.0 | 0.00 | 0.00 | 0.00 | 65 | 1019.1 |
| 20260507104021 | 21 | 252 | 6.4 | 0.0 | 0.00 | 0.00 | 0.00 | 64 | 1019.0 |
| 20260507103537 | 21 | 255 | 4.8 | 0.0 | 0.00 | 0.00 | 0.00 | 64 | 1018.9 |
| 20260507103119 | 20 | 258 | 6.4 | 0.0 | 0.00 | 0.00 | 0.00 | 64 | 1018.9 |
| 20260507103014 | 21 | 266 | 6.4 | 0.0 | 0.00 | 0.00 | 0.00 | 64 | 1018.8 |
| 20260507102952 | 21 | 264 | 4.8 | 11.3 | 0.00 | 0.03 | 0.00 | 63 | 1018.6 |
| 20260507102524 | 21 | 302 | 6.4 | 0.0 | 0.00 | 0.00 | 0.00 | 65 | 1018.8 |
| 20260507102023 | 21 | 257 | 6.4 | 0.0 | 0.00 | 0.00 | 0.00 | 64 | 1018.9 |
| 20260507101951 | 21 | 253 | 6.4 | 11.3 | 0.00 | 0.03 | 0.00 | 63 | 1018.6 |
| 20260507101621 | 20 | 263 | 6.4 | 0.0 | 0.00 | 0.00 | 0.00 | 63 | 1018.7 |
| 20260507101519 | 21 | 264 | 6.4 | 0.0 | 0.00 | 0.00 | 0.00 | 63 | 1018.8 |
| 20260507101025 | 21 | 246 | 6.4 | 0.0 | 0.00 | 0.00 | 0.00 | 62 | 1018.6 |
| 20260507100952 | 21 | 273 | 4.8 | 9.7 | 0.00 | 0.03 | 0.00 | 62 | 1018.3 |
| 20260507100523 | 21 | 273 | 6.4 | 0.0 | 0.00 | 0.00 | 0.00 | 62 | 1018.6 |
| 20260507100124 | 21 | 265 | 6.4 | 0.0 | 0.00 | 0.00 | 0.00 | 62 | 1018.6 |
| 20260507100033 | 21 | 263 | 6.4 | 0.0 | 0.00 | 0.00 | 0.00 | 62 | 1018.6 |
| 20260507095951 | 21 | 259 | 4.8 | 12.9 | 0.00 | 0.03 | 0.00 | 62 | 1018.4 |
| 20260507095528 | 21 | 262 | 6.4 | 0.0 | 0.00 | 0.00 | 0.00 | 61 | 1018.6 |
| 20260507095043 | 21 | 264 | 4.8 | 0.0 | 0.00 | 0.00 | 0.00 | 60 | 1018.6 |
| 20260507094951 | 21 | 257 | 6.4 | 9.7 | 0.00 | 0.03 | 0.00 | 60 | 1018.4 |
| 20260507094609 | 21 | 259 | 4.8 | 0.0 | 0.00 | 0.00 | 0.00 | 60 | 1018.5 |
| 20260507094517 | 22 | 253 | 4.8 | 0.0 | 0.00 | 0.00 | 0.00 | 60 | 1018.5 |
| 20260507094029 | 22 | 263 | 4.8 | 0.0 | 0.00 | 0.00 | 0.00 | 59 | 1018.4 |
| 20260507093951 | 22 | 267 | 4.8 | 4.8 | 0.00 | 0.03 | 0.00 | 60 | 1018.0 |
| 20260507093517 | 22 | 286 | 4.8 | 0.0 | 0.00 | 0.00 | 0.00 | 60 | 1018.4 |
| 20260507093108 | 22 | 254 | 3.2 | 0.0 | 0.00 | 0.00 | 0.00 | 60 | 1018.4 |
| 20260507093009 | 22 | 219 | 3.2 | 0.0 | 0.00 | 0.00 | 0.00 | 59 | 1018.4 |
| 20260507092952 | 22 | 219 | 3.2 | 4.8 | 0.00 | 0.03 | 0.00 | 59 | 1018.1 |
| 20260507092525 | 22 | 268 | 3.2 | 0.0 | 0.00 | 0.00 | 0.00 | 59 | 1018.4 |
| 20260507092011 | 22 | 267 | 3.2 | 0.0 | 0.00 | 0.00 | 0.00 | 60 | 1018.5 |
| 20260507091606 | 21 | 268 | 1.6 | 0.0 | 0.00 | 0.00 | 0.00 | 60 | 1018.4 |
| 20260507091524 | 22 | 277 | 1.6 | 0.0 | 0.00 | 0.00 | 0.00 | 59 | 1018.5 |
| 20260507091040 | 22 | 5 | 1.6 | 0.0 | 0.00 | 0.00 | 0.00 | 58 | 1018.4 |
| 20260507090951 | 22 | 7 | 0.0 | 4.8 | 0.00 | 0.03 | 0.00 | 58 | 1018.1 |
| 20260507090527 | 22 | 10 | 1.6 | 0.0 | 0.00 | 0.00 | 0.00 | 59 | 1018.4 |
| 20260507090045 | 21 | 36 | 1.6 | 0.0 | 0.00 | 0.00 | 0.00 | 60 | 1018.3 |
| 20260507090013 | 22 | 36 | 1.6 | 0.0 | 0.00 | 0.00 | 0.00 | 60 | 1018.3 |
| 20260507085951 | 21 | 36 | 1.6 | 4.8 | 0.00 | 0.03 | 0.00 | 58 | 1017.9 |
| 20260507085524 | 22 | 39 | 1.6 | 0.0 | 0.00 | 0.00 | 0.00 | 58 | 1018.2 |
| 20260507085018 | 21 | 40 | 1.6 | 0.0 | 0.00 | 0.00 | 0.00 | 60 | 1018.2 |
| 20260507084951 | 21 | 55 | 1.6 | 4.8 | 0.00 | 0.03 | 0.00 | 60 | 1017.7 |
| 20260507084542 | 21 | 61 | 3.2 | 0.0 | 0.00 | 0.00 | 0.00 | 58 | 1018.1 |
| 20260507084524 | 21 | 93 | 4.8 | 0.0 | 0.00 | 0.00 | 0.00 | 59 | 1018.0 |
| 20260507084019 | 21 | 65 | 6.4 | 0.0 | 0.00 | 0.00 | 0.00 | 58 | 1018.0 |
| 20260507083952 | 21 | 71 | 4.8 | 11.3 | 0.00 | 0.03 | 0.00 | 58 | 1017.5 |
| 20260507083535 | 21 | 78 | 3.2 | 0.0 | 0.00 | 0.00 | 0.00 | 58 | 1017.9 |
| 20260507083126 | 21 | 64 | 1.6 | 0.0 | 0.00 | 0.00 | 0.00 | 59 | 1017.9 |
| 20260507083045 | 21 | 40 | 1.6 | 0.0 | 0.00 | 0.00 | 0.00 | 58 | 1017.9 |
| 20260507082951 | 21 | 73 | 1.6 | 4.8 | 0.00 | 0.03 | 0.00 | 58 | 1017.6 |
| 20260507082514 | 21 | 51 | 4.8 | 0.0 | 0.00 | 0.00 | 0.00 | 57 | 1017.9 |
| 20260507082020 | 21 | 120 | 4.8 | 0.0 | 0.00 | 0.00 | 0.00 | 57 | 1017.9 |
| 20260507081951 | 21 | 107 | 4.8 | 12.9 | 0.00 | 0.03 | 0.00 | 57 | 1017.5 |
| 20260507081603 | 21 | 78 | 4.8 | 0.0 | 0.00 | 0.00 | 0.00 | 57 | 1017.9 |
| 20260507081513 | 21 | 69 | 4.8 | 0.0 | 0.00 | 0.00 | 0.00 | 57 | 1018.0 |
| 20260507081026 | 21 | 28 | 4.8 | 0.0 | 0.00 | 0.00 | 0.00 | 56 | 1017.8 |
| 20260507080952 | 21 | 49 | 4.8 | 11.3 | 0.00 | 0.03 | 0.00 | 56 | 1017.6 |
| 20260507080513 | 21 | 42 | 4.8 | 0.0 | 0.00 | 0.00 | 0.00 | 57 | 1017.9 |
| 20260507080026 | 21 | 83 | 3.2 | 0.0 | 0.00 | 0.00 | 0.00 | 57 | 1017.8 |
| 20260507075952 | 21 | 69 | 3.2 | 8.0 | 0.00 | 0.03 | 0.00 | 57 | 1017.6 |
| 20260507075518 | 20 | 67 | 3.2 | 0.0 | 0.00 | 0.00 | 0.00 | 60 | 1018.0 |
| 20260507075024 | 20 | 70 | 3.2 | 0.0 | 0.00 | 0.00 | 0.00 | 61 | 1017.9 |
| 20260507074951 | 20 | 53 | 4.8 | 8.0 | 0.00 | 0.03 | 0.00 | 61 | 1017.8 |
| 20260507074601 | 20 | 96 | 4.8 | 0.0 | 0.00 | 0.00 | 0.00 | 61 | 1017.8 |
| 20260507074537 | 20 | 96 | 3.2 | 0.0 | 0.00 | 0.00 | 0.00 | 61 | 1018.0 |
| 20260507074028 | 20 | 80 | 3.2 | 0.0 | 0.00 | 0.00 | 0.00 | 61 | 1017.9 |
| 20260507073517 | 20 | 13 | 1.6 | 0.0 | 0.00 | 0.00 | 0.00 | 63 | 1017.9 |
| 20260507073029 | 19 | 17 | 1.6 | 0.0 | 0.00 | 0.00 | 0.00 | 62 | 1017.9 |
| 20260507073006 | 19 | 30 | 1.6 | 0.0 | 0.00 | 0.00 | 0.00 | 62 | 1017.8 |
| 20260507072952 | 19 | 30 | 3.2 | 4.8 | 0.00 | 0.03 | 0.00 | 63 | 1017.5 |
| 20260507072537 | 19 | 64 | 1.6 | 0.0 | 0.00 | 0.00 | 0.00 | 63 | 1017.9 |
| 20260507072026 | 19 | 64 | 1.6 | 0.0 | 0.00 | 0.00 | 0.00 | 63 | 1017.9 |
| 20260507071616 | 18 | 41 | 3.2 | 0.0 | 0.00 | 0.00 | 0.00 | 63 | 1017.9 |
| 20260507071558 | 19 | 41 | 3.2 | 0.0 | 0.00 | 0.00 | 0.00 | 63 | 1018.0 |
| 20260506230058 | 10 | 186 | 6.4 | 0.0 | 0.00 | 0.00 | 0.00 | 81 | 1016.7 |
| 20260506230018 | 10 | 186 | 6.4 | 0.0 | 0.00 | 0.00 | 0.00 | 81 | 1016.8 |
| 20260506225952 | 10 | 185 | 8.0 | 8.0 | 0.00 | 0.03 | 0.00 | 81 | 1016.4 |
| 20260506225534 | 10 | 186 | 4.8 | 0.0 | 0.00 | 0.00 | 0.00 | 81 | 1016.8 |
| 20260506225032 | 10 | 182 | 4.8 | 0.0 | 0.00 | 0.00 | 0.00 | 80 | 1016.9 |
| 20260506224605 | 10 | 182 | 4.8 | 0.0 | 0.00 | 0.00 | 0.00 | 81 | 1016.8 |
| 20260506224045 | 10 | 184 | 4.8 | 0.0 | 0.00 | 0.00 | 0.00 | 80 | 1016.9 |
| 20260506223110 | 10 | 185 | 4.8 | 0.0 | 0.00 | 0.00 | 0.00 | 80 | 1016.8 |
| 20260506223013 | 11 | 185 | 4.8 | 0.0 | 0.00 | 0.00 | 0.00 | 80 | 1016.8 |
| 20260506222953 | 11 | 185 | 4.8 | 8.0 | 0.00 | 0.03 | 0.00 | 80 | 1016.4 |
| 20260506222532 | 11 | 186 | 4.8 | 0.0 | 0.00 | 0.00 | 0.00 | 80 | 1016.6 |
| 20260506222023 | 11 | 189 | 3.2 | 0.0 | 0.00 | 0.00 | 0.00 | 80 | 1016.6 |
| 20260506221615 | 11 | 189 | 4.8 | 0.0 | 0.00 | 0.00 | 0.00 | 79 | 1016.7 |
| 20260506221522 | 11 | 189 | 4.8 | 0.0 | 0.00 | 0.00 | 0.00 | 79 | 1016.8 |
| 20260506221014 | 11 | 190 | 4.8 | 0.0 | 0.00 | 0.00 | 0.00 | 79 | 1016.9 |
| 20260506220953 | 11 | 190 | 4.8 | 8.0 | 0.00 | 0.03 | 0.00 | 79 | 1016.4 |
| 20260506220514 | 11 | 189 | 4.8 | 0.0 | 0.00 | 0.00 | 0.00 | 79 | 1016.7 |
| 20260506220033 | 11 | 185 | 4.8 | 0.0 | 0.00 | 0.00 | 0.00 | 78 | 1016.6 |
| 20260506220004 | 11 | 182 | 4.8 | 0.0 | 0.00 | 0.00 | 0.00 | 78 | 1016.5 |
| 20260506215953 | 11 | 180 | 4.8 | 8.0 | 0.00 | 0.03 | 0.00 | 78 | 1016.3 |
| 20260506215526 | 11 | 176 | 4.8 | 0.0 | 0.00 | 0.00 | 0.00 | 78 | 1016.5 |
| 20260506215022 | 11 | 177 | 4.8 | 0.0 | 0.00 | 0.00 | 0.00 | 78 | 1016.6 |
| 20260506214952 | 11 | 179 | 3.2 | 4.8 | 0.00 | 0.03 | 0.00 | 78 | 1016.2 |
| 20260506214539 | 11 | 197 | 4.8 | 0.0 | 0.00 | 0.00 | 0.00 | 78 | 1016.6 |
| 20260506214513 | 12 | 198 | 4.8 | 0.0 | 0.00 | 0.00 | 0.00 | 78 | 1016.6 |
| 20260506214009 | 12 | 206 | 4.8 | 0.0 | 0.00 | 0.00 | 0.00 | 77 | 1016.6 |
| 20260506213953 | 12 | 206 | 3.2 | 4.8 | 0.00 | 0.03 | 0.00 | 77 | 1016.2 |
| 20260506213529 | 12 | 206 | 4.8 | 0.0 | 0.00 | 0.00 | 0.00 | 77 | 1016.7 |
| 20260506213154 | 12 | 206 | 4.8 | 0.0 | 0.00 | 0.00 | 0.00 | 77 | 1016.6 |
| 20260506213108 | 12 | 206 | 4.8 | 0.0 | 0.00 | 0.00 | 0.00 | 77 | 1016.7 |
| 20260506212953 | 12 | 206 | 6.4 | 8.0 | 0.00 | 0.03 | 0.00 | 77 | 1016.3 |
| 20260506212513 | 12 | 200 | 3.2 | 0.0 | 0.00 | 0.00 | 0.00 | 76 | 1016.5 |
| 20260506212012 | 12 | 200 | 3.2 | 0.0 | 0.00 | 0.00 | 0.00 | 76 | 1016.6 |
| 20260506211953 | 12 | 200 | 3.2 | 4.8 | 0.00 | 0.03 | 0.00 | 76 | 1016.2 |
| 20260506211621 | 12 | 200 | 3.2 | 0.0 | 0.00 | 0.00 | 0.00 | 76 | 1016.4 |
| 20260506211528 | 12 | 200 | 3.2 | 0.0 | 0.00 | 0.00 | 0.00 | 76 | 1016.5 |
| 20260506211019 | 12 | 200 | 3.2 | 0.0 | 0.00 | 0.00 | 0.00 | 77 | 1016.5 |
| 20260506210953 | 12 | 200 | 3.2 | 4.8 | 0.00 | 0.03 | 0.00 | 77 | 1016.2 |
| 20260506210517 | 12 | 204 | 4.8 | 0.0 | 0.00 | 0.00 | 0.00 | 77 | 1016.5 |
| 20260506210031 | 13 | 225 | 4.8 | 0.0 | 0.00 | 0.00 | 0.03 | 77 | 1016.5 |
| 20260506210005 | 12 | 228 | 4.8 | 0.0 | 0.00 | 0.00 | 0.03 | 77 | 1016.3 |
| 20260506205953 | 13 | 229 | 4.8 | 4.8 | 0.00 | 0.03 | 0.00 | 77 | 1016.2 |
| 20260506205523 | 13 | 229 | 3.2 | 0.0 | 0.00 | 0.00 | 0.03 | 77 | 1016.5 |
| 20260506205042 | 13 | 242 | 3.2 | 0.0 | 0.00 | 0.00 | 0.03 | 78 | 1016.5 |
| 20260506204624 | 13 | 242 | 1.6 | 0.0 | 0.00 | 0.00 | 0.03 | 78 | 1016.5 |
| 20260506204520 | 13 | 242 | 3.2 | 0.0 | 0.00 | 0.00 | 0.03 | 78 | 1016.4 |
| 20260506204013 | 13 | 243 | 3.2 | 0.0 | 0.00 | 0.00 | 0.03 | 79 | 1016.6 |
| 20260506203952 | 13 | 243 | 1.6 | 4.8 | 0.00 | 0.03 | 0.03 | 79 | 1016.2 |
| 20260506203512 | 13 | 238 | 3.2 | 0.0 | 0.00 | 0.00 | 0.03 | 79 | 1016.6 |
| 20260506203029 | 13 | 238 | 3.2 | 0.0 | 0.00 | 0.00 | 0.03 | 79 | 1016.5 |
| 20260506203014 | 13 | 238 | 3.2 | 0.0 | 0.00 | 0.00 | 0.03 | 79 | 1016.5 |
| 20260506202952 | 13 | 238 | 3.2 | 4.8 | 0.00 | 0.03 | 0.03 | 79 | 1016.2 |
| 20260506202542 | 13 | 238 | 3.2 | 0.0 | 0.00 | 0.00 | 0.03 | 80 | 1016.5 |
| 20260506202018 | 13 | 238 | 3.2 | 0.0 | 0.00 | 0.00 | 0.03 | 80 | 1016.6 |
| 20260506201952 | 13 | 238 | 3.2 | 4.8 | 0.00 | 0.03 | 0.03 | 80 | 1016.2 |
| 20260506201630 | 13 | 238 | 3.2 | 0.0 | 0.00 | 0.00 | 0.03 | 80 | 1016.5 |
| 20260506201533 | 14 | 238 | 1.6 | 0.0 | 0.00 | 0.00 | 0.03 | 80 | 1016.4 |
| 20260506201030 | 14 | 238 | 1.6 | 0.0 | 0.00 | 0.00 | 0.03 | 79 | 1016.3 |
| 20260506200953 | 14 | 238 | 3.2 | 4.8 | 0.00 | 0.03 | 0.03 | 79 | 1016.0 |
| 20260506200523 | 14 | 238 | 1.6 | 0.0 | 0.00 | 0.00 | 0.03 | 80 | 1016.3 |
| 20260506200124 | 14 | 238 | 1.6 | 0.0 | 0.00 | 0.00 | 0.03 | 81 | 1016.3 |
| 20260506200019 | 14 | 238 | 1.6 | 0.0 | 0.00 | 0.00 | 0.03 | 81 | 1016.3 |
| 20260506195952 | 14 | 252 | 1.6 | 4.8 | 0.00 | 0.03 | 0.03 | 81 | 1016.0 |
| 20260506195510 | 14 | 261 | 0.0 | 0.0 | 0.00 | 0.00 | 0.03 | 81 | 1016.2 |
| 20260506195030 | 14 | 261 | 0.0 | 0.0 | 0.00 | 0.00 | 0.03 | 81 | 1016.3 |
| 20260506194953 | 14 | 261 | 0.0 | 1.6 | 0.00 | 0.03 | 0.03 | 81 | 1016.0 |
| 20260506194618 | 14 | 261 | 0.0 | 0.0 | 0.00 | 0.00 | 0.03 | 81 | 1016.3 |
| 20260506194508 | 15 | 261 | 0.0 | 0.0 | 0.00 | 0.00 | 0.03 | 81 | 1016.3 |
| 20260506194020 | 15 | 261 | 1.6 | 0.0 | 0.00 | 0.00 | 0.03 | 81 | 1016.1 |
| 20260506193952 | 15 | 261 | 0.0 | 4.8 | 0.00 | 0.03 | 0.03 | 81 | 1016.0 |
| 20260506193522 | 15 | 261 | 1.6 | 0.0 | 0.00 | 0.00 | 0.03 | 81 | 1016.3 |
| 20260506193029 | 14 | 261 | 1.6 | 0.0 | 0.00 | 0.00 | 0.03 | 81 | 1016.0 |
| 20260506193011 | 15 | 261 | 3.2 | 0.0 | 0.00 | 0.00 | 0.03 | 81 | 1016.1 |
| 20260506192527 | 15 | 261 | 3.2 | 0.0 | 0.00 | 0.00 | 0.03 | 80 | 1016.1 |
| 20260506192043 | 15 | 261 | 4.8 | 0.0 | 0.00 | 0.00 | 0.03 | 81 | 1016.0 |
| 20260506191953 | 15 | 261 | 4.8 | 4.8 | 0.00 | 0.03 | 0.03 | 80 | 1015.6 |
| 20260506191621 | 15 | 273 | 6.4 | 0.0 | 0.00 | 0.00 | 0.03 | 80 | 1015.9 |
| 20260506191520 | 15 | 273 | 6.4 | 0.0 | 0.00 | 0.00 | 0.03 | 80 | 1015.9 |
| 20260506191010 | 15 | 284 | 3.2 | 0.0 | 0.00 | 0.00 | 0.03 | 80 | 1015.9 |
| 20260506190508 | 15 | 265 | 3.2 | 0.0 | 0.00 | 0.00 | 0.03 | 79 | 1015.9 |
| 20260506190026 | 15 | 264 | 3.2 | 0.0 | 0.00 | 0.00 | 0.03 | 78 | 1015.7 |
| 20260506190007 | 15 | 264 | 4.8 | 0.0 | 0.00 | 0.00 | 0.03 | 78 | 1015.7 |
| 20260506185953 | 15 | 264 | 3.2 | 4.8 | 0.00 | 0.03 | 0.03 | 78 | 1015.3 |
| 20260506185537 | 16 | 266 | 4.8 | 0.0 | 0.00 | 0.00 | 0.03 | 77 | 1015.7 |
| 20260506185013 | 16 | 288 | 3.2 | 0.0 | 0.00 | 0.00 | 0.03 | 77 | 1015.5 |
| 20260506184954 | 16 | 288 | 3.2 | 4.8 | 0.00 | 0.03 | 0.03 | 77 | 1015.3 |
| 20260506184623 | 16 | 287 | 4.8 | 0.0 | 0.00 | 0.00 | 0.03 | 76 | 1015.7 |
| 20260506184532 | 16 | 278 | 4.8 | 0.0 | 0.00 | 0.00 | 0.03 | 76 | 1015.7 |
| 20260506184024 | 16 | 269 | 8.0 | 0.0 | 0.00 | 0.00 | 0.03 | 75 | 1015.7 |
| 20260506183954 | 16 | 274 | 8.0 | 11.3 | 0.00 | 0.03 | 0.03 | 75 | 1015.1 |
| 20260506183524 | 16 | 270 | 6.4 | 0.0 | 0.00 | 0.00 | 0.03 | 74 | 1015.6 |
| 20260506183041 | 16 | 281 | 6.4 | 0.0 | 0.00 | 0.00 | 0.03 | 73 | 1015.5 |
| 20260506183017 | 17 | 299 | 6.4 | 0.0 | 0.00 | 0.00 | 0.03 | 73 | 1015.5 |
| 20260506182515 | 17 | 314 | 9.7 | 0.0 | 0.00 | 0.00 | 0.03 | 72 | 1015.4 |
| 20260506182032 | 17 | 281 | 11.3 | 0.0 | 0.00 | 0.00 | 0.03 | 71 | 1015.2 |
| 20260506181601 | 18 | 285 | 9.7 | 0.0 | 0.00 | 0.00 | 0.03 | 69 | 1014.8 |
| 20260506181523 | 18 | 294 | 9.7 | 0.0 | 0.00 | 0.00 | 0.03 | 69 | 1015.1 |
| 20260506181022 | 18 | 277 | 8.0 | 0.0 | 0.00 | 0.00 | 0.03 | 66 | 1014.9 |
| 20260506180953 | 18 | 279 | 8.0 | 12.9 | 0.00 | 0.03 | 0.03 | 66 | 1014.5 |
| 20260506180514 | 19 | 271 | 8.0 | 0.0 | 0.00 | 0.00 | 0.03 | 64 | 1014.9 |
| 20260506180118 | 20 | 269 | 9.7 | 0.0 | 0.00 | 0.00 | 0.03 | 62 | 1014.6 |
| 20260506180013 | 20 | 269 | 8.0 | 0.0 | 0.00 | 0.00 | 0.03 | 61 | 1014.8 |
| 20260506175953 | 20 | 271 | 9.7 | 12.9 | 0.00 | 0.03 | 0.03 | 61 | 1014.4 |
| 20260506175531 | 21 | 265 | 6.4 | 0.0 | 0.00 | 0.00 | 0.03 | 58 | 1014.6 |
| 20260506175022 | 21 | 262 | 3.2 | 0.0 | 0.00 | 0.00 | 0.03 | 53 | 1014.6 |
| 20260506174953 | 21 | 262 | 4.8 | 11.3 | 0.00 | 0.03 | 0.03 | 52 | 1014.3 |
| 20260506174615 | 21 | 263 | 3.2 | 0.0 | 0.00 | 0.00 | 0.03 | 48 | 1014.7 |
| 20260506174521 | 21 | 263 | 3.2 | 0.0 | 0.00 | 0.00 | 0.03 | 48 | 1014.6 |
| 20260506174016 | 22 | 323 | 1.6 | 0.0 | 0.00 | 0.00 | 0.03 | 48 | 1014.6 |
| 20260506173953 | 22 | 323 | 1.6 | 4.8 | 0.00 | 0.03 | 0.03 | 50 | 1014.2 |
| 20260506173520 | 22 | 321 | 3.2 | 0.0 | 0.00 | 0.00 | 0.03 | 49 | 1014.5 |
| 20260506173044 | 22 | 36 | 3.2 | 0.0 | 0.00 | 0.00 | 0.03 | 49 | 1014.4 |
| 20260506173013 | 22 | 36 | 3.2 | 0.0 | 0.00 | 0.00 | 0.03 | 49 | 1014.4 |
| 20260506172953 | 22 | 36 | 3.2 | 4.8 | 0.00 | 0.03 | 0.03 | 48 | 1014.0 |
| 20260506172514 | 23 | 36 | 1.6 | 0.0 | 0.00 | 0.00 | 0.03 | 49 | 1014.3 |
| 20260506172008 | 23 | 42 | 3.2 | 0.0 | 0.00 | 0.00 | 0.03 | 45 | 1014.2 |
| 20260506171954 | 23 | 46 | 1.6 | 9.7 | 0.00 | 0.03 | 0.03 | 46 | 1013.8 |
| 20260506171602 | 23 | 21 | 4.8 | 0.0 | 0.00 | 0.00 | 0.03 | 39 | 1014.1 |
| 20260506171526 | 23 | 21 | 4.8 | 0.0 | 0.00 | 0.00 | 0.03 | 38 | 1014.0 |
| 20260506171048 | 23 | 209 | 6.4 | 0.0 | 0.00 | 0.00 | 0.03 | 39 | 1014.2 |
| 20260506170528 | 24 | 249 | 9.7 | 0.0 | 0.00 | 0.00 | 0.03 | 37 | 1014.0 |
| 20260506170110 | 23 | 234 | 11.3 | 0.0 | 0.00 | 0.00 | 0.03 | 36 | 1013.8 |
| 20260506170039 | 24 | 227 | 11.3 | 0.0 | 0.00 | 0.00 | 0.03 | 36 | 1013.9 |
| 20260506165953 | 24 | 225 | 11.3 | 19.3 | 0.00 | 0.03 | 0.03 | 35 | 1013.6 |
| 20260506165518 | 24 | 204 | 9.7 | 0.0 | 0.00 | 0.00 | 0.03 | 37 | 1013.9 |
| 20260506165011 | 25 | 227 | 9.7 | 0.0 | 0.00 | 0.00 | 0.03 | 35 | 1013.9 |
| 20260506164954 | 25 | 223 | 11.3 | 20.9 | 0.00 | 0.03 | 0.03 | 36 | 1013.5 |
| 20260506164603 | 25 | 221 | 9.7 | 0.0 | 0.00 | 0.00 | 0.03 | 37 | 1013.9 |
| 20260506164511 | 25 | 217 | 9.7 | 0.0 | 0.00 | 0.00 | 0.03 | 36 | 1014.0 |
| 20260506164031 | 25 | 223 | 11.3 | 0.0 | 0.00 | 0.00 | 0.03 | 35 | 1013.9 |
| 20260506163524 | 25 | 225 | 11.3 | 0.0 | 0.00 | 0.00 | 0.03 | 33 | 1013.9 |
| 20260506163124 | 25 | 221 | 11.3 | 0.0 | 0.00 | 0.00 | 0.03 | 36 | 1013.9 |
| 20260506163023 | 25 | 223 | 11.3 | 0.0 | 0.00 | 0.00 | 0.03 | 35 | 1013.9 |
| 20260506162953 | 25 | 215 | 9.7 | 19.3 | 0.00 | 0.03 | 0.03 | 35 | 1013.6 |
| 20260506162518 | 26 | 228 | 12.9 | 0.0 | 0.00 | 0.00 | 0.03 | 35 | 1013.7 |
| 20260506162018 | 26 | 201 | 12.9 | 0.0 | 0.00 | 0.00 | 0.03 | 34 | 1013.7 |
| 20260506161953 | 26 | 209 | 12.9 | 22.5 | 0.00 | 0.03 | 0.03 | 34 | 1013.4 |
| 20260506161541 | 26 | 206 | 12.9 | 0.0 | 0.00 | 0.00 | 0.03 | 34 | 1013.8 |
| 20260506161511 | 26 | 207 | 12.9 | 0.0 | 0.00 | 0.00 | 0.03 | 34 | 1013.8 |
| 20260506161012 | 26 | 194 | 12.9 | 0.0 | 0.00 | 0.00 | 0.03 | 34 | 1013.8 |
| 20260506160953 | 26 | 202 | 14.5 | 20.9 | 0.00 | 0.03 | 0.03 | 35 | 1013.5 |
| 20260506160533 | 26 | 209 | 12.9 | 0.0 | 0.00 | 0.00 | 0.03 | 36 | 1013.8 |
| 20260506160117 | 26 | 211 | 12.9 | 0.0 | 0.00 | 0.00 | 0.03 | 35 | 1013.9 |
| 20260506160024 | 26 | 209 | 12.9 | 0.0 | 0.00 | 0.00 | 0.03 | 35 | 1013.8 |
| 20260506155953 | 26 | 199 | 14.5 | 20.9 | 0.00 | 0.03 | 0.03 | 35 | 1013.6 |
| 20260506155526 | 26 | 203 | 12.9 | 0.0 | 0.00 | 0.00 | 0.03 | 34 | 1014.0 |
| 20260506155021 | 26 | 198 | 11.3 | 0.0 | 0.00 | 0.00 | 0.03 | 36 | 1013.8 |
| 20260506154954 | 26 | 205 | 9.7 | 20.9 | 0.00 | 0.03 | 0.03 | 36 | 1013.4 |
| 20260506154522 | 26 | 199 | 12.9 | 0.0 | 0.00 | 0.00 | 0.03 | 35 | 1013.8 |
| 20260506154510 | 26 | 209 | 12.9 | 0.0 | 0.00 | 0.00 | 0.03 | 35 | 1013.7 |
| 20260506154015 | 27 | 199 | 14.5 | 0.0 | 0.00 | 0.00 | 0.03 | 36 | 1014.0 |
| 20260506153954 | 27 | 200 | 14.5 | 22.5 | 0.00 | 0.03 | 0.03 | 35 | 1013.5 |
| 20260506153518 | 27 | 198 | 12.9 | 0.0 | 0.00 | 0.00 | 0.03 | 34 | 1013.8 |
| 20260506153050 | 27 | 215 | 12.9 | 0.0 | 0.00 | 0.00 | 0.03 | 36 | 1013.9 |
| 20260506153010 | 27 | 200 | 12.9 | 0.0 | 0.00 | 0.00 | 0.03 | 35 | 1013.8 |
| 20260506152953 | 27 | 205 | 14.5 | 22.5 | 0.00 | 0.03 | 0.03 | 36 | 1013.4 |
| 20260506152511 | 27 | 192 | 12.9 | 0.0 | 0.00 | 0.00 | 0.03 | 36 | 1013.9 |
| 20260506152051 | 27 | 220 | 12.9 | 0.0 | 0.00 | 0.00 | 0.03 | 37 | 1013.8 |
| 20260506151954 | 27 | 224 | 14.5 | 20.9 | 0.00 | 0.03 | 0.03 | 36 | 1013.3 |
| 20260506151550 | 27 | 227 | 11.3 | 0.0 | 0.00 | 0.00 | 0.03 | 38 | 1013.8 |
| 20260506151027 | 27 | 212 | 12.9 | 0.0 | 0.00 | 0.00 | 0.03 | 36 | 1013.8 |
| 20260506150523 | 27 | 196 | 14.5 | 0.0 | 0.00 | 0.00 | 0.03 | 37 | 1013.9 |
| 20260506150119 | 27 | 199 | 11.3 | 0.0 | 0.00 | 0.00 | 0.03 | 38 | 1013.8 |
| 20260506150021 | 27 | 198 | 9.7 | 0.0 | 0.00 | 0.00 | 0.03 | 37 | 1013.8 |
| 20260506145954 | 27 | 195 | 14.5 | 25.7 | 0.00 | 0.03 | 0.03 | 37 | 1013.6 |
| 20260506145542 | 27 | 207 | 9.7 | 0.0 | 0.00 | 0.00 | 0.03 | 39 | 1013.9 |
| 20260506145015 | 28 | 205 | 11.3 | 0.0 | 0.00 | 0.00 | 0.03 | 38 | 1013.8 |
| 20260506144954 | 28 | 235 | 8.0 | 19.3 | 0.00 | 0.03 | 0.03 | 38 | 1013.4 |
| 20260506144618 | 27 | 229 | 11.3 | 0.0 | 0.00 | 0.00 | 0.03 | 38 | 1013.9 |
| 20260506144515 | 28 | 235 | 9.7 | 0.0 | 0.00 | 0.00 | 0.03 | 36 | 1013.9 |
| 20260506144028 | 28 | 225 | 8.0 | 0.0 | 0.00 | 0.00 | 0.03 | 34 | 1013.9 |
| 20260506143953 | 28 | 228 | 9.7 | 19.3 | 0.00 | 0.03 | 0.03 | 38 | 1013.6 |
| 20260506143548 | 27 | 285 | 6.4 | 0.0 | 0.00 | 0.00 | 0.03 | 42 | 1014.0 |
| 20260506143118 | 27 | 318 | 8.0 | 0.0 | 0.00 | 0.00 | 0.03 | 41 | 1013.9 |
| 20260506143025 | 27 | 342 | 8.0 | 0.0 | 0.00 | 0.00 | 0.03 | 39 | 1014.0 |
| 20260506142518 | 28 | 49 | 6.4 | 0.0 | 0.00 | 0.00 | 0.03 | 41 | 1013.8 |
| 20260506142017 | 28 | 37 | 4.8 | 0.0 | 0.00 | 0.00 | 0.03 | 39 | 1013.9 |
| 20260506141954 | 28 | 20 | 3.2 | 9.7 | 0.00 | 0.03 | 0.03 | 39 | 1013.6 |
| 20260506141533 | 27 | 65 | 4.8 | 0.0 | 0.00 | 0.00 | 0.03 | 39 | 1013.9 |
| 20260506141510 | 27 | 68 | 4.8 | 0.0 | 0.00 | 0.00 | 0.03 | 38 | 1014.0 |
| 20260506141012 | 28 | 34 | 8.0 | 0.0 | 0.00 | 0.00 | 0.03 | 40 | 1013.9 |
| 20260506140953 | 27 | 37 | 3.2 | 14.5 | 0.00 | 0.03 | 0.03 | 40 | 1013.6 |
| 20260506140532 | 27 | 42 | 9.7 | 0.0 | 0.00 | 0.00 | 0.03 | 39 | 1014.0 |
| 20260506140054 | 27 | 61 | 11.3 | 0.0 | 0.00 | 0.00 | 0.03 | 40 | 1014.0 |
| 20260506140022 | 28 | 45 | 11.3 | 0.0 | 0.00 | 0.00 | 0.03 | 40 | 1014.0 |
| 20260506135523 | 28 | 43 | 9.7 | 0.0 | 0.00 | 0.00 | 0.03 | 41 | 1014.0 |
| 20260506135017 | 28 | 67 | 9.7 | 0.0 | 0.00 | 0.00 | 0.03 | 40 | 1014.2 |
| 20260506134613 | 27 | 86 | 9.7 | 0.0 | 0.00 | 0.00 | 0.03 | 40 | 1014.1 |
| 20260506134535 | 27 | 93 | 8.0 | 0.0 | 0.00 | 0.00 | 0.03 | 42 | 1014.1 |
| 20260506134014 | 27 | 51 | 9.7 | 0.0 | 0.00 | 0.00 | 0.03 | 42 | 1014.2 |
| 20260506133954 | 27 | 68 | 9.7 | 16.1 | 0.00 | 0.03 | 0.03 | 42 | 1013.9 |
| 20260506133554 | 27 | 80 | 8.0 | 0.0 | 0.00 | 0.00 | 0.03 | 41 | 1014.1 |
| 20260506133053 | 27 | 49 | 9.7 | 0.0 | 0.00 | 0.00 | 0.03 | 42 | 1014.1 |
| 20260506133026 | 27 | 78 | 9.7 | 0.0 | 0.00 | 0.00 | 0.03 | 42 | 1014.2 |
| 20260506132954 | 27 | 46 | 9.7 | 19.3 | 0.00 | 0.03 | 0.03 | 43 | 1013.8 |
| 20260506132524 | 27 | 37 | 9.7 | 0.0 | 0.00 | 0.00 | 0.03 | 41 | 1014.3 |
| 20260506132021 | 27 | 68 | 9.7 | 0.0 | 0.00 | 0.00 | 0.03 | 42 | 1014.4 |
| 20260506131612 | 27 | 68 | 11.3 | 0.0 | 0.00 | 0.00 | 0.03 | 41 | 1014.3 |
| 20260506131520 | 27 | 77 | 11.3 | 0.0 | 0.00 | 0.00 | 0.03 | 41 | 1014.5 |
| 20260506131041 | 27 | 55 | 11.3 | 0.0 | 0.00 | 0.00 | 0.03 | 42 | 1014.7 |
| 20260506130954 | 27 | 66 | 12.9 | 19.3 | 0.00 | 0.03 | 0.03 | 42 | 1014.3 |
| 20260506130512 | 27 | 66 | 11.3 | 0.0 | 0.00 | 0.00 | 0.03 | 42 | 1014.7 |
| 20260506130111 | 26 | 71 | 12.9 | 0.0 | 0.00 | 0.00 | 0.03 | 42 | 1014.6 |
| 20260506130011 | 27 | 49 | 14.5 | 0.0 | 0.00 | 0.00 | 0.03 | 40 | 1014.7 |
| 20260506125954 | 27 | 50 | 11.3 | 19.3 | 0.00 | 0.03 | 0.03 | 42 | 1014.3 |
| 20260506125520 | 27 | 63 | 14.5 | 0.0 | 0.00 | 0.00 | 0.03 | 41 | 1014.7 |
| 20260506125021 | 27 | 65 | 12.9 | 0.0 | 0.00 | 0.00 | 0.03 | 41 | 1014.7 |
| 20260506124955 | 27 | 61 | 14.5 | 20.9 | 0.00 | 0.03 | 0.03 | 41 | 1014.5 |
| 20260506124528 | 26 | 27 | 14.5 | 0.0 | 0.00 | 0.00 | 0.03 | 41 | 1014.7 |
| 20260506124513 | 27 | 64 | 14.5 | 0.0 | 0.00 | 0.00 | 0.03 | 41 | 1014.8 |
| 20260506124013 | 27 | 71 | 16.1 | 0.0 | 0.00 | 0.00 | 0.03 | 40 | 1014.9 |
| 20260506123954 | 27 | 76 | 16.1 | 22.5 | 0.00 | 0.03 | 0.03 | 40 | 1014.4 |
| 20260506123530 | 27 | 63 | 16.1 | 0.0 | 0.00 | 0.00 | 0.03 | 38 | 1014.8 |
| 20260506123047 | 27 | 85 | 16.1 | 0.0 | 0.00 | 0.00 | 0.03 | 38 | 1014.9 |
| 20260506123022 | 27 | 90 | 16.1 | 0.0 | 0.00 | 0.00 | 0.03 | 38 | 1014.8 |
| 20260506122955 | 27 | 82 | 14.5 | 22.5 | 0.00 | 0.03 | 0.03 | 38 | 1014.6 |